[[{"header":{"parameterUnit":"m.s-1","parameterCategory":1,"la1":30.2991,"la2":30.254,"lo1":-89.0895,"lo2":-89.0444,"dy":0.0017,"dx":0.0017,"nx":28,"ny":28,"refTime":"2025-11-06T09:00:00:Z","depth":0,"parameterNumber":2,"parameterNumberName":"U-component_of_WINDS"},"data":[0,0,0,0,0,0,0,0,0,0,0,0,0,0,0,0,0,0,0,0,0,0,0,0,0,0,0,0,0,0,0,0,0,0,0,0,0,0,0,0,0,0,0,0,0,0,0,0,0,0,0,0,0,0,0,0,0,0,-2.4174,-2.4174,0,-2.4153,-2.4153,-2.4152,-2.408,-2.4078,-2.4076,-2.4075,-2.4055,-2.4056,-2.4057,0,0,0,0,0,0,0,0,0,0,0,0,0,-2.4155,-2.4156,-2.4174,-2.4174,-2.4173,-2.4153,-2.4153,-2.4152,-2.408,-2.4078,-2.4076,-2.4074,-2.4055,-2.4056,-2.4057,0,0,0,0,0,0,0,0,0,0,0,0,0,-2.4152,-2.4156,-2.4174,-2.4135,-2.4131,-2.4153,-2.4153,-2.4152,-2.408,-2.4078,-2.4075,-2.4073,-2.4054,-2.4056,-2.4057,-2.4116,0,0,-2.4062,-2.4062,0,0,0,0,0,0,0,0,-2.4152,-2.4153,-2.4141,-2.4137,-2.4133,-2.4116,-2.4139,-2.414,-2.4081,-2.41,-2.4075,-2.4072,-2.4077,-2.4077,-2.4078,-2.4115,-2.4114,-2.4062,-2.4063,-2.4063,-2.4064,0,0,0,0,0,0,0,-2.4153,-2.4153,-2.4165,-2.4141,-2.4136,-2.412,-2.4116,-2.4139,-2.4103,-2.4098,-2.4092,-2.4091,-2.4075,-2.4077,-2.4077,-2.4114,-2.4062,-2.4063,-2.4064,-2.4065,-2.4202,-2.4204,0,0,0,0,0,0,-2.4158,-2.4154,-2.4166,-2.4165,-2.4137,-2.4122,-2.4118,-2.4124,-2.4102,-2.4096,-2.4093,-2.4088,-2.4076,-2.4076,-2.4076,-2.4146,-2.4063,-2.4065,-2.4066,-2.4199,-2.4202,-2.4205,0,0,0,0,0,0,-2.4158,-2.416,-2.4167,-2.4158,-2.4158,-2.4125,-2.4132,-2.4125,-2.4127,-2.4099,-2.4092,-2.4102,-2.4074,-2.4074,-2.4107,-2.4144,-2.4065,-2.4067,-2.4196,-2.42,-2.4204,-2.4285,0,0,0,0,0,0,-2.4158,-2.416,-2.4181,-2.4159,-2.4158,-2.4197,-2.4134,-2.4127,-2.413,-2.4122,-2.4105,-2.41,-2.4072,-2.4106,-2.4109,-2.4145,-2.4068,-2.4192,-2.4198,-2.4203,-2.4279,-2.4291,-2.4302,0,0,0,0,0,-2.4157,-2.4204,-2.4182,-2.4184,-2.4183,-2.4199,-2.4199,-2.4166,-2.4133,-2.4155,-2.4137,-2.41,-2.414,-2.411,-2.4113,-2.415,-2.419,-2.4196,-2.4202,-2.4273,-2.4289,-2.4301,0,0,0,0,0,0,-2.423,-2.42,-2.4176,-2.4216,-2.4211,-2.4187,-2.4213,-2.4182,-2.4187,-2.418,-2.4139,-2.4136,-2.4175,-2.4166,-2.4132,-2.4208,-2.4159,-2.4166,-2.4212,-2.4226,-2.4238,-2.4239,-2.4069,0,0,0,0,0,-2.4251,-2.4266,-2.4239,-2.4278,-2.4276,-2.4246,-2.4251,-2.4226,-2.4219,-2.4217,-2.4201,-2.4197,-2.4208,-2.4217,-2.4226,-2.4277,-2.4274,-2.4305,-2.4316,-2.4326,-2.4333,-2.4363,-2.4377,-2.4226,-2.4226,-2.4225,0,0,-2.4294,-2.428,-2.4291,-2.4292,-2.4285,-2.4303,-2.4244,-2.4264,-2.4277,-2.422,-2.425,-2.424,-2.4232,-2.4276,-2.4294,-2.4269,-2.4374,-2.4334,-2.4342,-2.4343,-2.4371,-2.4385,-2.4398,-2.423,-2.4229,-2.4228,0,0,-2.4382,-2.4372,-2.4404,-2.4399,-2.4389,-2.4369,-2.4378,-2.4359,-2.435,-2.438,-2.4338,-2.4354,-2.4374,-2.4372,-2.4373,-2.4465,-2.4433,-2.447,-2.453,-2.456,-2.4572,-2.4582,-2.4617,-2.463,-2.4476,-2.4477,-2.4477,0,-2.4437,-2.4461,-2.4425,-2.4449,-2.4452,-2.4401,-2.4436,-2.4432,-2.4427,-2.4431,-2.4403,-2.443,-2.4421,-2.4465,-2.4488,-2.449,-2.45,-2.4471,-2.4573,-2.4583,-2.4592,-2.4625,-2.4638,-2.4481,-2.4481,-2.448,-2.448,0,-2.453,-2.4548,-2.4575,-2.4572,-2.4578,-2.4607,-2.4577,-2.4588,-2.4564,-2.4548,-2.4582,-2.457,-2.4578,-2.4586,-2.4562,-2.4628,-2.4613,-2.458,-2.453,-2.4612,-2.4643,-2.4655,-2.4488,-2.4486,-2.4485,-2.4484,0,0,-2.466,-2.464,-2.465,-2.465,-2.4638,-2.4651,-2.468,-2.4687,-2.4699,-2.4698,-2.4722,-2.4743,-2.4713,-2.4715,-2.4691,-2.4717,-2.4794,-2.468,-2.468,-2.4704,-2.4869,-2.4895,-2.491,-2.4773,-2.4775,-2.4777,-2.4871,0,-2.4745,-2.4791,-2.4762,-2.4814,-2.4831,-2.4786,-2.4811,-2.4808,-2.4795,-2.4809,-2.4794,-2.481,-2.4768,-2.477,-2.4794,-2.4779,-2.4827,-2.4772,-2.4797,-2.4798,-2.4801,-2.4926,-2.4952,-2.5041,-2.4882,-2.4884,-2.4885,0,-2.4849,-2.4854,-2.4908,-2.4896,-2.4902,-2.4925,-2.4932,-2.4946,-2.4942,-2.4931,-2.4936,-2.4906,-2.4936,-2.4887,-2.4929,-2.4893,-2.4902,-2.4897,-2.4899,-2.4901,-2.4847,-2.4932,-2.5068,-2.5083,-2.4904,-2.4902,-2.4901,0,-2.4942,-2.4962,-2.4997,-2.4998,-2.4984,-2.5002,-2.4998,-2.4992,-2.4999,-2.5006,-2.5011,-2.5021,-2.5027,-2.5036,-2.5011,-2.4978,-2.5058,-2.5006,-2.5051,-2.5052,-2.5069,-2.5069,-2.5211,-2.5074,-2.5074,-2.5073,-2.5073,0,-2.504,-2.5075,-2.5039,-2.5061,-2.5101,-2.5068,-2.5108,-2.5099,-2.5095,-2.5116,-2.5077,-2.5098,-2.5064,-2.5082,-2.5063,-2.5103,-2.5105,-2.5098,-2.5093,-2.5102,-2.5103,-2.5107,-2.5101,-2.5077,-2.5076,-2.5076,-2.5075,0,-2.515,-2.5126,-2.5163,-2.5148,-2.5145,-2.5175,-2.5163,-2.5184,-2.5169,-2.5197,-2.5201,-2.5179,-2.5199,-2.5175,-2.5193,-2.518,-2.5234,-2.5219,-2.5236,-2.5232,-2.5278,-2.5275,-2.5428,-2.5448,-2.5298,-2.5299,-2.53,0,-2.5214,-2.524,-2.5229,-2.524,-2.5238,-2.5257,-2.5265,-2.5235,-2.5246,-2.5247,-2.5268,-2.5285,-2.5297,-2.5332,-2.5318,-2.5332,-2.5318,-2.5371,-2.532,-2.533,-2.5321,-2.532,-2.5324,-2.5382,-2.5383,-2.5385,-2.5386,0,-2.5332,-2.532,-2.5333,-2.5344,-2.5355,-2.5362,-2.5365,-2.5377,-2.5347,-2.5361,-2.5381,-2.5391,-2.541,-2.5429,-2.544,-2.5437,-2.5408,-2.5403,-2.5414,-2.5424,-2.5433,-2.5431,-2.5265,-2.5399,-2.5398,-2.5397,-2.5396,-2.5395,-2.5421,-2.5444,-2.5441,-2.5458,-2.5458,-2.5464,-2.5484,-2.5473,-2.5489,-2.5502,-2.5484,-2.551,-2.551,-2.5522,-2.5523,-2.5545,-2.5522,-2.5538,-2.5542,-2.5547,-2.5555,-2.543,-2.5546,-2.5546,-2.5546,-2.5545,-2.5545,0,-2.5539,-2.5535,-2.5551,-2.5559,-2.5573,-2.5545,-2.5549,-2.5563,-2.5586,-2.5589,-2.5602,-2.5627,-2.5646,-2.5635,-2.5652,-2.5671,-2.5659,-2.5677,-2.5676,-2.5676,-2.5573,-2.5562,-2.5687,-2.5687,-2.5687,-2.5687,-2.5687,-2.5687,-2.5601,-2.5639,-2.5628,-2.5667,-2.5663,-2.5688,-2.5693,-2.57,-2.5702,-2.5732,-2.5747,-2.574,-2.5738,-2.5755,-2.5772,-2.5768,-2.5777,-2.5801,-2.5793,-2.5697,-2.5683,-2.5669,-2.5659,-2.5802,-2.5803,-2.5894,-2.5895,-2.5895]},{"header":{"parameterUnit":"m.s-1","parameterCategory":1,"la1":30.2991,"la2":30.254,"lo1":-89.0895,"lo2":-89.0444,"dy":0.0017,"dx":0.0017,"nx":28,"ny":28,"refTime":"2025-11-06T09:00:00:Z","depth":0,"parameterNumber":3,"parameterNumberName":"V-component_of_WINDS"},"data":[0,0,0,0,0,0,0,0,0,0,0,0,0,0,0,0,0,0,0,0,0,0,0,0,0,0,0,0,0,0,0,0,0,0,0,0,0,0,0,0,0,0,0,0,0,0,0,0,0,0,0,0,0,0,0,0,0,0,2.377,2.377,0,2.3757,2.3757,2.3757,2.3806,2.3808,2.3809,2.381,2.379,2.3788,2.3786,0,0,0,0,0,0,0,0,0,0,0,0,0,2.383,2.3828,2.377,2.377,2.377,2.3757,2.3757,2.3757,2.3806,2.3808,2.3809,2.3811,2.3791,2.3789,2.3786,0,0,0,0,0,0,0,0,0,0,0,0,0,2.3809,2.3828,2.377,2.3793,2.3795,2.3757,2.3757,2.3757,2.3805,2.3808,2.381,2.3812,2.3792,2.3789,2.3786,2.3724,0,0,2.3777,2.3776,0,0,0,0,0,0,0,0,2.381,2.3807,2.3789,2.3791,2.3793,2.3786,2.3771,2.3746,2.3805,2.3801,2.381,2.3813,2.3786,2.3784,2.3777,2.3723,2.3722,2.3777,2.3775,2.3774,2.3773,0,0,0,0,0,0,0,2.3811,2.3807,2.3765,2.3789,2.3791,2.3801,2.3801,2.3766,2.3781,2.3802,2.3805,2.3803,2.3788,2.3779,2.3777,2.3722,2.3777,2.3774,2.3773,2.3772,2.3616,2.3614,0,0,0,0,0,0,2.3811,2.3808,2.3765,2.3764,2.3807,2.3799,2.3798,2.3786,2.3782,2.3784,2.3801,2.3806,2.3783,2.378,2.3776,2.3703,2.3774,2.3771,2.377,2.3619,2.3616,2.3613,0,0,0,0,0,0,2.3812,2.3806,2.3766,2.3787,2.3783,2.3795,2.3781,2.3784,2.3776,2.3782,2.3784,2.3791,2.3785,2.378,2.3737,2.3703,2.377,2.3767,2.3622,2.3618,2.3614,2.3556,0,0,0,0,0,0,2.3813,2.3807,2.3784,2.3787,2.3782,2.3728,2.3779,2.3782,2.3772,2.3777,2.3772,2.3773,2.3786,2.3741,2.3734,2.37,2.3765,2.3625,2.362,2.3616,2.3561,2.355,2.3542,0,0,0,0,0,2.3815,2.3767,2.3783,2.3778,2.3755,2.3726,2.3723,2.3741,2.3769,2.3746,2.375,2.3773,2.3708,2.3736,2.3729,2.3693,2.3627,2.3621,2.3616,2.3565,2.3552,2.3542,0,0,0,0,0,0,2.3757,2.3767,2.3786,2.3737,2.3731,2.3735,2.3706,2.3727,2.3711,2.3717,2.3737,2.3736,2.3689,2.3687,2.3718,2.3633,2.3672,2.3665,2.3635,2.3624,2.3614,2.3615,2.3763,0,0,0,0,0,2.374,2.3718,2.3727,2.3683,2.368,2.3693,2.3682,2.3696,2.369,2.3687,2.3687,2.3678,2.3656,2.364,2.3619,2.3561,2.356,2.3533,2.3524,2.3516,2.3509,2.3477,2.3465,2.3595,2.3595,2.3596,0,0,2.3701,2.3704,2.3689,2.3672,2.3669,2.3644,2.3691,2.3662,2.3643,2.3681,2.3641,2.3642,2.3632,2.3582,2.3559,2.3579,2.3473,2.3509,2.3503,2.35,2.347,2.3458,2.3447,2.3592,2.3592,2.3593,0,0,2.3619,2.362,2.3583,2.358,2.3576,2.3585,2.3576,2.3578,2.358,2.3541,2.3569,2.3546,2.3507,2.3499,2.349,2.3406,2.3426,2.3399,2.3348,2.3317,2.3307,2.3298,2.3266,2.3255,2.3392,2.3392,2.3392,0,2.3571,2.3537,2.356,2.3531,2.3522,2.3558,2.352,2.3515,2.3503,2.3495,2.3518,2.347,2.3467,2.3414,2.3394,2.3386,2.3375,2.3398,2.3307,2.3298,2.329,2.326,2.3248,2.3388,2.3389,2.3389,2.3389,0,2.3477,2.3453,2.3424,2.3414,2.3402,2.3368,2.3385,2.3369,2.3385,2.3392,2.3351,2.3349,2.3328,2.3317,2.3331,2.3266,2.3278,2.3304,2.3343,2.3273,2.3245,2.3234,2.3383,2.3385,2.3386,2.3386,0,0,2.3355,2.3362,2.335,2.3346,2.3345,2.3326,2.3293,2.3276,2.3261,2.3252,2.3224,2.3191,2.3214,2.3204,2.3218,2.3191,2.3123,2.3219,2.322,2.32,2.3049,2.3029,2.3015,2.3138,2.3136,2.3134,2.3049,0,2.3273,2.322,2.3241,2.3184,2.3162,2.3197,2.3168,2.3163,2.3169,2.3149,2.3154,2.313,2.3164,2.3158,2.3133,2.3136,2.3092,2.3143,2.3109,2.3107,2.3108,2.3001,2.2979,2.2899,2.3039,2.3037,2.3036,0,2.317,2.3159,2.3101,2.3105,2.3096,2.307,2.3056,2.3037,2.3031,2.3038,2.3027,2.3047,2.3013,2.3054,2.3006,2.304,2.3028,2.3028,2.3025,2.302,2.3066,2.2992,2.2875,2.2862,2.3019,2.302,2.3022,0,2.3085,2.3056,2.3018,2.3014,2.3017,2.2998,2.2998,2.2995,2.2983,2.297,2.2963,2.2945,2.2934,2.2919,2.2933,2.2962,2.2883,2.2925,2.2885,2.2884,2.2864,2.2865,2.2741,2.2859,2.286,2.286,2.286,0,2.299,2.2952,2.298,2.2956,2.2915,2.2939,2.2897,2.2901,2.2898,2.2874,2.2903,2.2879,2.29,2.2878,2.2888,2.2846,2.2842,2.2844,2.2847,2.284,2.284,2.2831,2.2836,2.2857,2.2857,2.2858,2.2858,0,2.2887,2.2904,2.2864,2.2872,2.2873,2.2842,2.2847,2.2824,2.2833,2.2802,2.2796,2.2809,2.2784,2.2798,2.2771,2.2778,2.2723,2.2735,2.2726,2.2728,2.2686,2.2689,2.255,2.2533,2.2664,2.2663,2.2662,0,2.2824,2.2796,2.2802,2.2789,2.2788,2.2767,2.2756,2.2779,2.2765,2.2758,2.2735,2.2714,2.2697,2.2656,2.2661,2.2641,2.2651,2.2604,2.2647,2.2642,2.2648,2.2648,2.2645,2.2594,2.2592,2.2591,2.259,0,2.271,2.272,2.2705,2.2692,2.2679,2.2669,2.2661,2.2649,2.2672,2.2655,2.2632,2.2619,2.2594,2.2571,2.2554,2.2552,2.2573,2.2577,2.2566,2.2558,2.2553,2.2553,2.27,2.2579,2.258,2.2581,2.2582,2.2582,2.2624,2.2601,2.2602,2.2583,2.2581,2.2573,2.2552,2.256,2.2541,2.2524,2.2538,2.251,2.2505,2.2485,2.2479,2.2456,2.2474,2.2459,2.2455,2.245,2.2444,2.2559,2.2453,2.2453,2.2454,2.2454,2.2454,0,2.251,2.2513,2.2496,2.2486,2.2471,2.2497,2.249,2.2475,2.245,2.2445,2.243,2.2402,2.238,2.2385,2.2365,2.2345,2.2355,2.2339,2.234,2.2338,2.2429,2.244,2.2332,2.2332,2.2332,2.2332,2.2332,2.2332,2.2449,2.2412,2.2422,2.2383,2.2386,2.236,2.2354,2.2347,2.2343,2.2312,2.2295,2.2299,2.2298,2.2278,2.2259,2.2261,2.2251,2.2231,2.2236,2.232,2.2332,2.2343,2.2354,2.2229,2.2229,2.2147,2.2146,2.2146]}]]